This is the latest recevied weather packets stored in our database for station/object HUGOCO. If no packets are shown the sender has not sent any weather packets the latest 10 day(s).
| Time | Temp. | Humidity | Pressure | Rain* | Wind** | Luminosity | Snow |
|---|---|---|---|---|---|---|---|
| 1777908062 | 19.44° C | 27% | 1004.2 hPa | 0 mm | - | - | - |
| 1777907762 | 19.44° C | 28% | 1004.3 hPa | 0 mm | - | - | - |
| 1777907462 | 18.89° C | 29% | 1004.2 hPa | 0 mm | - | - | - |
| 1777907162 | 18.89° C | 30% | 1004.4 hPa | 0 mm | - | - | - |
| 1777906862 | 18.33° C | 29% | 1004.6 hPa | 0 mm | - | - | - |
| 1777906562 | 18.33° C | 29% | 1004.5 hPa | 0 mm | - | - | - |
| 1777906262 | 18.33° C | 29% | 1004.6 hPa | 0 mm | - | - | - |
| 1777905962 | 18.33° C | 29% | 1004.6 hPa | 0 mm | - | - | - |
| 1777905662 | 18.33° C | 29% | 1004.6 hPa | 0 mm | - | - | - |
| 1777905362 | 18.33° C | 29% | 1004.6 hPa | 0 mm | - | - | - |
| 1777905062 | 17.78° C | 32% | 1004.8 hPa | 0 mm | - | - | - |
| 1777904762 | 17.78° C | 31% | 1004.8 hPa | 0 mm | - | - | - |
| 1777904462 | 17.22° C | 31% | 1004.8 hPa | 0 mm | - | - | - |
| 1777904162 | 17.22° C | 30% | 1004.9 hPa | 0 mm | - | - | - |
| 1777903917 | 16.67° C | 31% | 1005 hPa | 0 mm | - | - | - |
| 1777903862 | 16.67° C | 31% | 1005 hPa | 0 mm | - | - | - |
| 1777903562 | 16.11° C | 34% | 1005 hPa | 0 mm | - | - | - |
| 1777903262 | 16.11° C | 34% | 1005.1 hPa | 0 mm | - | - | - |
| 1777902962 | 16.11° C | 34% | 1005.1 hPa | 0 mm | - | - | - |
| 1777902662 | 16.11° C | 35% | 1005.2 hPa | 0 mm | - | - | - |
| 1777902362 | 16.11° C | 34% | 1005.2 hPa | 0 mm | - | - | - |
| 1777902062 | 16.11° C | 35% | 1005.3 hPa | 0 mm | - | - | - |
| 1777901762 | 15.56° C | 36% | 1005.2 hPa | 0 mm | - | - | - |
| 1777901462 | 15° C | 38% | 1005.3 hPa | 0 mm | - | - | - |
| 1777901162 | 14.44° C | 38% | 1005.3 hPa | 0 mm | - | - | - |
* Rain latest hour (hover to see other rain measurements)
** Current wind speed in m/s (hover to see current wind gust speed)